Showing default

NINGXIA-1 1, 44779

Orbit data source: Space-Track

NINGXIA-1 1, 44779 is a Chinese payload satellite in LEO that was launched on Wed, 13 Nov 2019 UTC via a CHANG ZHENG 6 launch vehicle from the Taiyaun Space Center, China (TSC). Payload-class satellites include a variety of spacecraft equipped with specific instruments for various scientific and technological missions. These include communications satellites like Starlink; space stations such as the ISS; scientific satellites like the Hubble; Earth observation satellites from companies like Planet Labs, Umbra, and HawkEye 360; GPS; miniature CubeSats for education and research; and military/defense satellites.

Loading next visibility...
Identifier
44779, 2019-076A
Orbit
LEO
Last TLE update
4 hours ago
Origin
Manufacturer
DFH
Mission
Operational Commercial Sigint
Bus & Motor
NX-1, Unknown motor
Mass
~100 kg wet, ~100 kg dry
Launch date (UTC)
2019-11-13 (5 years ago)
Launch vehicle
CHANG ZHENG 6
Launch site
Taiyaun Space Center, China (TSC)
Object type
Payload
Rocket body
Debris
Shape & HBR
Box + 2 Pan, Unknown HBR
Radar Cross Section
0.166 m², Large (>1 m²)

Expand to show TLE details & history

TLE from 4 hours ago
0 NINGXIA-1 1
1 44779U 19076A   25129.20611082 -.00000055  00000-0  49078-4 0  9996
2 44779  45.0052 185.0160 0009847  42.1211 318.0378 14.01918819281169
Epoch: 2025-05-09T04:56Z
Definitive object data (Epoch: 2025-05-09T04:56:47.974Z)
Latitude
-0.00006°
Longitude
-116.44953°
Altitude
881.842 km
Speed
7.416 km/s
True Right ascension
12h 20m 03s
True Declination
0° 00' 00"
Sunlit
Object was in full shadow at TLE epoch
Visualization TLE readout
Latitude
44.80858°
Longitude
-36.06823°
Altitude
885.573 km
Speed
7.418 km/s
Apparent Right ascension
22h 20m 55s
Apparent Declination
44° 15' 17"
Sunlit
Object is in daylight
Visualization observer readout
Local Sidereal Time
16:55:02
Azimuth
56.599° ENE
Elevation
31.956°
Doppler factor
1
Orbital elements
Apogee altitude
895.833 km
Perigee altitude
881.522 km
Semi-major axis
7,266.815 km
Eccentricity
0.0009847
Inclination
45.0052°
RAAN
185.016°
Arg. of periapsis
42.1211°
True anomaly
317.96228°
Mean anomaly
318.0378°
Eccentric anomaly
318.00005°
Mean motion
3.5037 °/min
BSTAR
0.000049078
Orbital period
102.75 mins
Loading maneuver chart data...
Loading SW <> Apogee altitude chart data...
Loading historical data...
Loading historical data...
Loading historical data...
Loading historical data...
Loading historical data...
Loading historical data...
Loading historical data...
Other satellites on launch #76 in the year 2019 (2019-11-13 UTC)

NINGXIA-1 1 Visibility forecast

Observer location: undefined°, undefined°

Span
Click to sort rows by Start time (UTC) header in descending order
Start Az.
Max El. time (UTC)
Max El. Az.
Max El.
End time (UTC)
End Az.
10 mins2025-05-09 10:26:49.665Z290.683° WNW2025-05-09 10:31:49.665Z12.167° NNE38.771°2025-05-09 10:36:49.665Z80.095° E
10 mins2025-05-09 12:15:49.665Z293.3° NW2025-05-09 12:19:49.665Z285.922° WNW44.815°2025-05-09 12:25:49.665Z115.723° SE
8 mins2025-05-09 14:03:49.665Z270.922° WNW2025-05-09 14:07:49.665Z218.555° SW25.441°2025-05-09 14:11:49.665Z169.334° S
6 mins2025-05-10 05:02:49.665Z161.14° S2025-05-10 05:04:49.665Z139.222° SSE15.708°2025-05-10 05:08:49.665Z96.693° ESE
10 mins2025-05-10 06:47:49.665Z226.11° WSW2025-05-10 06:52:49.665Z135.102° SSE41.446°2025-05-10 06:57:49.665Z70.798° E
9 mins2025-05-10 08:36:49.665Z273.491° WNW2025-05-10 08:40:49.665Z352.476° N40.96°2025-05-10 08:45:49.665Z66.184° ENE
|